sat.trackr.live / text

‹ back to catalog

STARLINK-35434

NORAD 66246 · 2025-245N

PAYLOAD ACTIVE UNKNOWN

§ Identity

Operator
Country
US
Launch date
2025-10-29
Launch site
AFETR
Launch vehicle
Mass (kg)
RCS (m²)

Purposes: comms

External: N2YO · Heavens-Above · Gunter

§ Orbital elements

Epoch: 2026-09-20T05:55:26.494752Z

Period
94.01 min
Inclination
53.1563°
Eccentricity
0.0001538
Mean motion
15.31709691 rev/d
Perigee alt
469.7 km
Apogee alt
471.8 km
Semi-major
6,848.8 km
B*
2.1754e-4
RAAN
98.8080°
Arg perigee
87.8708°
Mean anomaly
272.2470°
Rev number
5,085

§ Raw data

STARLINK-354341 66246U 25245N   26263.24683443  .00006393  00000+0  21754-3 0  99972 66246  53.1563  98.8080 0001538  87.8708 272.2470 15.31709691 50851

JSON: /api/v1/satellites/66246 · /tle

For live sub-satellite position, see the globe view (requires WebGL).

§ Visibility from observer

Set your observer location to see the next 7 days of passes ≥ 10°. The values pass through the URL so the page stays shareable.

No JS? Fill the form by hand. The geolocation button needs JavaScript.